Location: Golden Pond Observatory
(36.7773°N, 88.0631°W)
Time: 05:22:22
(UTC-05:00)

Tiangong 2 - Visible Passes

Search period start: 21 March 2019 00:00
Search period end: 31 March 2019 00:00
Orbit: 379 x 390 km, 42.8° (Epoch: 21 March)

Date Brightness Start Highest point End Pass type
(mag) Time Alt. Az. Time Alt. Az. Time Alt. Az.
21 Mar 1.9 05:16:09 42° N 05:16:25 44° NNE 05:19:29 10° E visible
22 Mar 4.7 04:19:39 10° ENE 04:19:39 10° ENE 04:19:43 10° ENE visible
22 Mar 1.0 05:51:54 22° WNW 05:53:43 66° SSW 05:56:52 10° SE visible
23 Mar 2.8 04:55:32 32° E 04:55:32 32° E 04:57:24 10° ESE visible
24 Mar 1.9 05:31:34 33° SSW 05:31:34 33° SSW 05:34:17 10° SE visible
29 Mar 1.9 20:17:05 10° SSW 20:19:55 32° SSE 20:20:23 30° SE visible
30 Mar 1.5 20:53:51 10° WSW 20:56:32 59° W 20:56:32 59° W visible
